{"data":{"norad_id":50189,"intl_designator":"2021-125AK","name":"STARLINK-3276","alt_names":[],"object_type":"PAYLOAD","status":"ACTIVE","operator":null,"country":"US","launch_date":"2021-12-18","launch_site_code":"AFWTR","launch_vehicle":null,"mission":null,"orbit_class":"UNKNOWN","rcs_meters":null,"size_class":null,"mass_kg":null,"dimensions":null,"purposes":["comms"],"wikipedia_slug":null,"has_3d_model":false,"image_url":null,"decayed_at":null,"tle_current":{"epoch":"2026-09-20T03:34:17.272128Z","epoch_age_seconds":59488,"freshness":"FRESH","line1":"1 50189U 21125AK  26263.14881102  .00020638  00000+0  96111-3 0  9997","line2":"2 50189  53.2124  85.1190 0002524  66.1662 293.9600 15.19903800266151","mean_motion":15.199038,"eccentricity":0.0002524,"inclination_deg":53.2124,"raan_deg":85.119,"arg_perigee_deg":66.1662,"mean_anomaly_deg":293.96,"bstar":0.00096111,"rev_number":26615,"period_min":94.742838329636,"perigee_km":504.39349534398,"apogee_km":507.86867387309,"semimajor_km":6884.2680846085,"source":"CELESTRAK","updated_at":"2026-09-20T09:00:39.418178Z"}}}